Simultaneous Nadir Overpasses (SNOs) Predictions

Prediction of SNOs between NOAA-20 and PACE Satellite Orbit:

Table of predicted SNOs for the next 14.0 days since TLE Epoch: 6/15/2024
Index Date (NOAA-20) Time (NOAA-20) Lat,Lon (NOAA-20) SZA (NOAA-20 ) Date (PACE) Time (PACE) Lat,Lon (PACE) SZA (PACE ) Distance(km) Time Diff (sec)
1 06/17/2024 00:59:39 -80.04, -53.89 120.97 06/17/2024 01:00:13 -80.04, -53.87 120.99 0.36 34
2 06/17/2024 01:50:19 79.88, 115.03 58.72 06/17/2024 01:49:18 79.87, 115.17 58.73 2.89 61
3 06/19/2024 05:25:58 -80.02,-120.32 121.03 06/19/2024 05:26:17 -80.02,-120.26 121.05 0.99 19
4 06/19/2024 06:15:21 76.93, 66.33 54.34 06/19/2024 06:14:08 76.64, 64.74 54.25 51.49 73
5 06/21/2024 09:52:15 -79.95, 173.82 121.16 06/21/2024 09:52:19 -79.96, 173.76 121.15 1.21 4
6 06/23/2024 14:18:34 -79.94, 107.33 121.14 06/23/2024 14:18:22 -79.94, 107.34 121.14 0.29 12
7 06/25/2024 17:54:13 80.06,-127.81 59.17 06/25/2024 17:55:19 80.07,-127.91 59.15 2.05 66
8 06/25/2024 18:44:51 -79.88, 41.38 121.19 06/25/2024 18:44:23 -79.88, 41.33 121.17 1.04 28
9 06/27/2024 22:20:32 80.06, 165.63 59.27 06/27/2024 22:21:21 80.06, 165.65 59.24 0.40 49



Historial Predications of SNOs between NOAA-20 and PACE
